• In Netherlands
  • List of Countries
  • For 7 days
  • Water Temperature
  • Satellite Maps
  • Weather Map
  • Weather Widgets
  • user-avatar
    Login

    Hourly Weather Klagenfurt

    Today, 19 November, Sunday

    Time Temperature Precipitation Wind Pressure Humidity
    00:00 0°C° 0 mm 1 mps 688 mmHg 90%
    01:00 0°C° 0 mm 1 mps 688 mmHg 89%
    02:00 0°C° 0 mm 1 mps 687 mmHg 88%
    03:00 0°C° 0 mm 1 mps 687 mmHg 88%
    04:00 0°C° 0 mm 1 mps 687 mmHg 87%
    05:00 0°C° 0 mm 1 mps 686 mmHg 87%
    06:00 -1°C° 0 mm 0 mps 686 mmHg 86%
    07:00 0°C° 0 mm 1 mps 686 mmHg 80%
    08:00 +1°C° 0 mm 1 mps 686 mmHg 76%
    09:00 +1°C° 0 mm 0 mps 686 mmHg 72%
    10:00 +2°C° 0 mm 0 mps 686 mmHg 68%
    11:00 +5°C° 0 mm 1 mps 686 mmHg 63%
    12:00 +6°C° 0 mm 1 mps 686 mmHg 59%
    13:00 +7°C° 0 mm 1 mps 686 mmHg 54%
    14:00 +6°C° 0 mm 1 mps 686 mmHg 59%
    15:00 +5°C° 0 mm 1 mps 686 mmHg 65%
    16:00 +3°C° 0 mm 1 mps 686 mmHg 70%
    17:00 +2°C° 0 mm 1 mps 687 mmHg 72%
    18:00 +1°C° 0 mm 1 mps 687 mmHg 75%
    19:00 0°C° 0 mm 1 mps 688 mmHg 77%
    20:00 -1°C° 0 mm 1 mps 688 mmHg 77%
    21:00 -1°C° 0 mm 1 mps 688 mmHg 76%
    22:00 -1°C° 0 mm 1 mps 689 mmHg 75%
    23:00 -1°C° 0 mm 1 mps 689 mmHg 74%

    Tomorrow, 20 November, Monday

    Time Temperature Precipitation Wind Pressure Humidity
    00:00 -1°C° 0 mm 1 mps 689 mmHg 72%
    01:00 -1°C° 0 mm 1 mps 689 mmHg 71%
    02:00 -1°C° 0 mm 1 mps 689 mmHg 70%
    03:00 -1°C° 0 mm 1 mps 690 mmHg 69%
    04:00 -1°C° 0 mm 1 mps 690 mmHg 68%
    05:00 -1°C° 0 mm 1 mps 690 mmHg 68%
    06:00 -1°C° 0 mm 1 mps 690 mmHg 68%
    07:00 -1°C° 0 mm 1 mps 690 mmHg 68%
    08:00 +1°C° 0 mm 1 mps 691 mmHg 62%
    09:00 +3°C° 0 mm 1 mps 691 mmHg 55%
    10:00 +4°C° 0 mm 1 mps 692 mmHg 49%
    11:00 +5°C° 0 mm 1 mps 692 mmHg 47%
    12:00 +6°C° 0 mm 1 mps 692 mmHg 45%
    13:00 +7°C° 0 mm 1 mps 692 mmHg 43%
    14:00 +6°C° 0 mm 1 mps 691 mmHg 51%
    15:00 +4°C° 0 mm 1 mps 691 mmHg 59%
    16:00 +3°C° 0 mm 1 mps 691 mmHg 67%
    17:00 +2°C° 0 mm 1 mps 690 mmHg 71%
    18:00 +1°C° 0 mm 1 mps 690 mmHg 76%
    19:00 +1°C° 0 mm 1 mps 690 mmHg 80%
    20:00 0°C° 0 mm 1 mps 690 mmHg 81%
    21:00 0°C° 0 mm 1 mps 690 mmHg 82%
    22:00 0°C° 0 mm 1 mps 689 mmHg 83%
    23:00 0°C° 0 mm 1 mps 689 mmHg 83%

    Day after tomorrow, 21 November, Tuesday

    Time Temperature Precipitation Wind Pressure Humidity
    00:00 0°C° 0 mm 1 mps 689 mmHg 83%
    01:00 0°C° 0 mm 1 mps 689 mmHg 83%
    02:00 0°C° 0 mm 1 mps 689 mmHg 83%
    03:00 +1°C° 0 mm 1 mps 688 mmHg 83%
    04:00 +1°C° 0 mm 1 mps 688 mmHg 83%
    05:00 +1°C° 0 mm 1 mps 688 mmHg 84%
    06:00 0°C° 0 mm 1 mps 688 mmHg 84%
    07:00 0°C° 0 mm 1 mps 688 mmHg 85%
    08:00 +2°C° 0 mm 1 mps 689 mmHg 79%
    09:00 +4°C° 0 mm 1 mps 689 mmHg 73%
    10:00 +5°C° 0 mm 2 mps 690 mmHg 67%
    11:00 +6°C° 0 mm 2 mps 690 mmHg 65%
    12:00 +7°C° 0 mm 2 mps 690 mmHg 64%
    13:00 +8°C° 0 mm 2 mps 690 mmHg 62%
    14:00 +6°C° 0 mm 2 mps 689 mmHg 69%
    15:00 +5°C° 0 mm 2 mps 689 mmHg 76%
    16:00 +5°C° 0 mm 1 mps 689 mmHg 83%
    17:00 +4°C° 0 mm 1 mps 689 mmHg 85%
    18:00 +3°C° 0 mm 1 mps 689 mmHg 87%
    19:00 +3°C° 0 mm 1 mps 690 mmHg 89%
    20:00 +3°C° 0 mm 1 mps 690 mmHg 89%
    21:00 +3°C° 0 mm 1 mps 690 mmHg 89%
    22:00 +3°C° 0 mm 1 mps 690 mmHg 89%
    23:00 +3°C° 0 mm 1 mps 690 mmHg 89%

    22 November, Wednesday

    Time Temperature Precipitation Wind Pressure Humidity
    00:00 +3°C° 0 mm 1 mps 690 mmHg 89%
    01:00 +3°C° 0 mm 1 mps 690 mmHg 89%
    02:00 +3°C° 0 mm 1 mps 690 mmHg 89%
    03:00 +3°C° 0 mm 1 mps 690 mmHg 90%
    04:00 +3°C° 0 mm 1 mps 690 mmHg 90%
    05:00 +3°C° 0 mm 1 mps 690 mmHg 90%
    06:00 +2°C° 0 mm 1 mps 690 mmHg 90%
    07:00 +2°C° 0 mm 1 mps 690 mmHg 90%
    08:00 +4°C° 0 mm 1 mps 691 mmHg 85%
    09:00 +6°C° 0 mm 1 mps 691 mmHg 80%
    10:00 +8°C° 0 mm 1 mps 691 mmHg 76%
    11:00 +8°C° 0 mm 1 mps 691 mmHg 74%
    12:00 +8°C° 0 mm 2 mps 691 mmHg 72%
    13:00 +9°C° 0 mm 2 mps 691 mmHg 71%
    14:00 +8°C° 0 mm 2 mps 691 mmHg 77%
    15:00 +8°C° 0 mm 1 mps 691 mmHg 83%
    16:00 +7°C° 0 mm 1 mps 691 mmHg 89%
    17:00 +6°C° 0 mm 1 mps 691 mmHg 90%
    18:00 +5°C° 0 mm 1 mps 691 mmHg 92%
    19:00 +4°C° 0 mm 1 mps 691 mmHg 94%
    20:00 +4°C° 0 mm 1 mps 691 mmHg 94%
    21:00 +4°C° 0 mm 1 mps 691 mmHg 93%
    22:00 +4°C° 0 mm 1 mps 692 mmHg 93%
    23:00 +4°C° 0 mm 1 mps 692 mmHg 93%

    23 November, Thursday

    Time Temperature Precipitation Wind Pressure Humidity
    00:00 +4°C° 0 mm 1 mps 692 mmHg 93%
    01:00 +3°C° 0 mm 1 mps 692 mmHg 93%
    02:00 +3°C° 0 mm 1 mps 692 mmHg 93%
    03:00 +3°C° 0 mm 1 mps 692 mmHg 92%
    04:00 +3°C° 0 mm 1 mps 692 mmHg 92%
    05:00 +3°C° 0 mm 1 mps 692 mmHg 91%
    06:00 +3°C° 0 mm 1 mps 692 mmHg 91%
    07:00 +3°C° 0 mm 1 mps 692 mmHg 90%
    08:00 +5°C° 0 mm 1 mps 693 mmHg 86%
    09:00 +6°C° 0 mm 1 mps 694 mmHg 81%
    10:00 +8°C° 0 mm 1 mps 694 mmHg 77%
    11:00 +9°C° 0 mm 1 mps 694 mmHg 74%
    12:00 +10°C° 0 mm 1 mps 694 mmHg 71%
    13:00 +11°C° 0 mm 1 mps 694 mmHg 68%
    14:00 +10°C° 0 mm 1 mps 694 mmHg 74%
    15:00 +8°C° 0 mm 1 mps 694 mmHg 80%
    16:00 +7°C° 0 mm 1 mps 694 mmHg 86%
    17:00 +6°C° 0 mm 1 mps 694 mmHg 87%
    18:00 +5°C° 0 mm 1 mps 694 mmHg 88%
    19:00 +5°C° 0 mm 1 mps 694 mmHg 90%
    20:00 +4°C° 0 mm 1 mps 694 mmHg 89%
    21:00 +4°C° 0 mm 1 mps 694 mmHg 88%
    22:00 +4°C° 0 mm 1 mps 694 mmHg 87%
    23:00 +4°C° 0 mm 1 mps 694 mmHg 87%

    24 November, Friday

    Time Temperature Precipitation Wind Pressure Humidity
    00:00 +4°C° 0 mm 1 mps 694 mmHg 86%
    01:00 +3°C° 0 mm 1 mps 694 mmHg 85%
    02:00 +3°C° 0 mm 1 mps 694 mmHg 85%
    03:00 +3°C° 0 mm 1 mps 694 mmHg 85%
    04:00 +3°C° 0 mm 1 mps 694 mmHg 84%
    05:00 +3°C° 0 mm 1 mps 694 mmHg 84%
    06:00 +3°C° 0 mm 1 mps 694 mmHg 85%
    07:00 +3°C° 0 mm 1 mps 694 mmHg 85%
    08:00 +4°C° 0 mm 1 mps 694 mmHg 80%
    09:00 +6°C° 0 mm 1 mps 694 mmHg 76%
    10:00 +8°C° 0 mm 1 mps 695 mmHg 72%
    11:00 +8°C° 0 mm 1 mps 694 mmHg 70%
    12:00 +9°C° 0 mm 1 mps 694 mmHg 69%
    13:00 +9°C° 0 mm 2 mps 694 mmHg 67%
    14:00 +9°C° 0 mm 1 mps 694 mmHg 74%
    15:00 +8°C° 0 mm 1 mps 693 mmHg 80%
    16:00 +6°C° 0 mm 1 mps 693 mmHg 87%
    17:00 +6°C° 0 mm 1 mps 693 mmHg 89%
    18:00 +5°C° 0 mm 1 mps 693 mmHg 91%
    19:00 +4°C° 0 mm 1 mps 693 mmHg 94%
    20:00 +4°C° 0 mm 1 mps 693 mmHg 94%
    21:00 +4°C° 0 mm 1 mps 694 mmHg 94%
    22:00 +4°C° 0 mm 1 mps 694 mmHg 93%
    23:00 +4°C° 0 mm 1 mps 694 mmHg 93%
    Show more